[[{"header":{"parameterUnit":"m.s-1","parameterCategory":1,"la1":30.2991,"la2":30.254,"lo1":-89.0895,"lo2":-89.0444,"dy":0.0017,"dx":0.0017,"nx":28,"ny":28,"refTime":"2024-12-17T03:00:00:Z","depth":0,"parameterNumber":2,"parameterNumberName":"U-component_of_WINDS"},"data":[0,0,0,0,0,0,0,0,0,0,0,0,0,0,0,0,0,0,0,0,0,0,0,0,0,0,0,0,0,0,0,0,0,0,0,0,0,0,0,0,0,0,0,0,0,0,0,0,0,0,0,0,0,0,0,0,0,0,-2.0758,-2.0758,0,-2.0762,-2.0762,-2.0762,-2.0726,-2.0725,-2.0724,-2.0723,-2.0727,-2.0728,-2.0729,0,0,0,0,0,0,0,0,0,0,0,0,0,-2.0718,-2.0719,-2.0758,-2.0758,-2.0758,-2.0762,-2.0762,-2.0762,-2.0726,-2.0725,-2.0723,-2.0722,-2.0726,-2.0728,-2.0729,0,0,0,0,0,0,0,0,0,0,0,0,0,-2.073,-2.0719,-2.0758,-2.074,-2.0739,-2.0762,-2.0762,-2.0762,-2.0726,-2.0724,-2.0723,-2.0722,-2.0726,-2.0728,-2.0729,-2.0769,0,0,-2.0734,-2.0735,0,0,0,0,0,0,0,0,-2.0729,-2.0732,-2.0743,-2.0741,-2.074,-2.0742,-2.0749,-2.0764,-2.0726,-2.0731,-2.0723,-2.0721,-2.0733,-2.0734,-2.0738,-2.0769,-2.077,-2.0734,-2.0735,-2.0736,-2.0736,0,0,0,0,0,0,0,-2.0729,-2.0731,-2.0759,-2.0743,-2.0741,-2.0732,-2.0732,-2.0752,-2.074,-2.073,-2.0728,-2.0729,-2.0732,-2.0737,-2.0738,-2.077,-2.0734,-2.0735,-2.0736,-2.0737,-2.0834,-2.0835,0,0,0,0,0,0,-2.073,-2.0731,-2.0759,-2.0759,-2.0731,-2.0734,-2.0734,-2.0743,-2.074,-2.0738,-2.073,-2.0727,-2.0735,-2.0736,-2.0738,-2.0784,-2.0736,-2.0737,-2.0738,-2.0832,-2.0834,-2.0836,0,0,0,0,0,0,-2.0729,-2.0733,-2.0759,-2.0744,-2.0747,-2.0736,-2.0746,-2.0743,-2.0748,-2.074,-2.0737,-2.0737,-2.0733,-2.0736,-2.0762,-2.0783,-2.0738,-2.0739,-2.083,-2.0833,-2.0835,-2.0877,0,0,0,0,0,0,-2.0728,-2.0733,-2.0748,-2.0745,-2.0748,-2.0783,-2.0748,-2.0745,-2.0751,-2.0747,-2.0746,-2.0744,-2.0732,-2.0759,-2.0763,-2.0785,-2.0741,-2.0828,-2.0831,-2.0834,-2.0873,-2.088,-2.0886,0,0,0,0,0,-2.0727,-2.0759,-2.0749,-2.0753,-2.0766,-2.0784,-2.0786,-2.0772,-2.0753,-2.0768,-2.0763,-2.0744,-2.0781,-2.0762,-2.0766,-2.0789,-2.0827,-2.0831,-2.0834,-2.087,-2.0879,-2.0886,0,0,0,0,0,0,-2.0765,-2.0759,-2.0747,-2.0779,-2.0783,-2.0778,-2.0796,-2.0781,-2.079,-2.0786,-2.0768,-2.0768,-2.0797,-2.0796,-2.0775,-2.0827,-2.08,-2.0805,-2.0827,-2.0835,-2.0841,-2.084,-2.0742,0,0,0,0,0,-2.0777,-2.0792,-2.0786,-2.0815,-2.0817,-2.0807,-2.0814,-2.0803,-2.0805,-2.0806,-2.0803,-2.0806,-2.0818,-2.0827,-2.0838,-2.0874,-2.0872,-2.0891,-2.0897,-2.0903,-2.0906,-2.0925,-2.0933,-2.0848,-2.0848,-2.0848,0,0,-2.0802,-2.0801,-2.0811,-2.0823,-2.0824,-2.0839,-2.0808,-2.0826,-2.0837,-2.0809,-2.0833,-2.0831,-2.0834,-2.0864,-2.0878,-2.0864,-2.093,-2.0907,-2.0912,-2.0912,-2.0929,-2.0937,-2.0944,-2.085,-2.085,-2.085,0,0,-2.0855,-2.0856,-2.088,-2.0882,-2.0885,-2.0878,-2.0884,-2.0881,-2.0879,-2.0903,-2.0882,-2.0896,-2.0918,-2.092,-2.0924,-2.0979,-2.0962,-2.0984,-2.1017,-2.1035,-2.1041,-2.1047,-2.1066,-2.1073,-2.0988,-2.0988,-2.0988,0,-2.0886,-2.0908,-2.0894,-2.0913,-2.0919,-2.0895,-2.0919,-2.0922,-2.0928,-2.0932,-2.0917,-2.0944,-2.0944,-2.0975,-2.0988,-2.0993,-2.0999,-2.0983,-2.1042,-2.1047,-2.1052,-2.107,-2.1077,-2.099,-2.099,-2.099,-2.099,0,-2.0945,-2.0962,-2.0981,-2.0987,-2.0995,-2.1017,-2.1006,-2.1016,-2.1005,-2.0999,-2.1024,-2.1024,-2.1034,-2.1041,-2.103,-2.107,-2.1062,-2.1045,-2.1017,-2.1063,-2.1079,-2.1086,-2.0994,-2.0993,-2.0992,-2.0992,0,0,-2.102,-2.102,-2.1027,-2.1029,-2.1031,-2.1043,-2.1064,-2.1074,-2.1082,-2.1088,-2.1104,-2.1124,-2.1108,-2.1113,-2.1102,-2.1119,-2.1161,-2.1099,-2.1099,-2.111,-2.1205,-2.1216,-2.1224,-2.1151,-2.1152,-2.1153,-2.1204,0,-2.1071,-2.1106,-2.1094,-2.113,-2.1144,-2.1123,-2.1141,-2.1144,-2.114,-2.1152,-2.1147,-2.1161,-2.114,-2.1142,-2.1158,-2.1153,-2.118,-2.115,-2.1165,-2.1166,-2.1163,-2.1233,-2.1245,-2.1292,-2.121,-2.1211,-2.1212,0,-2.1134,-2.1142,-2.1179,-2.1178,-2.1184,-2.12,-2.1209,-2.1221,-2.1224,-2.122,-2.1226,-2.1212,-2.1233,-2.1207,-2.1234,-2.1214,-2.122,-2.1219,-2.1221,-2.122,-2.119,-2.1232,-2.1307,-2.1314,-2.1222,-2.1221,-2.1221,0,-2.1183,-2.1203,-2.1228,-2.1231,-2.1231,-2.1243,-2.1244,-2.1246,-2.1253,-2.126,-2.1265,-2.1275,-2.128,-2.1288,-2.1278,-2.126,-2.1307,-2.128,-2.1303,-2.1304,-2.1312,-2.1311,-2.1387,-2.132,-2.1319,-2.1319,-2.1319,0,-2.124,-2.1263,-2.125,-2.1265,-2.129,-2.1277,-2.1303,-2.1301,-2.1303,-2.1317,-2.13,-2.1314,-2.13,-2.1313,-2.1306,-2.1329,-2.1332,-2.1329,-2.1326,-2.1329,-2.1329,-2.1331,-2.1327,-2.1321,-2.1321,-2.132,-2.132,0,-2.1297,-2.129,-2.1315,-2.1314,-2.1314,-2.1333,-2.1331,-2.1345,-2.1341,-2.1359,-2.1362,-2.1355,-2.1369,-2.136,-2.1375,-2.137,-2.14,-2.1393,-2.1398,-2.1396,-2.1419,-2.1416,-2.1497,-2.1507,-2.1435,-2.1435,-2.1436,0,-2.1333,-2.135,-2.1351,-2.1359,-2.1361,-2.1375,-2.1382,-2.1371,-2.1379,-2.1384,-2.1397,-2.141,-2.1419,-2.1443,-2.1438,-2.1449,-2.1442,-2.147,-2.1443,-2.1446,-2.1441,-2.1439,-2.144,-2.1474,-2.1475,-2.1476,-2.1477,0,-2.1396,-2.1392,-2.1403,-2.1413,-2.1422,-2.143,-2.1435,-2.1443,-2.1432,-2.1442,-2.1456,-2.1464,-2.1478,-2.1491,-2.15,-2.1501,-2.1487,-2.1485,-2.1491,-2.1493,-2.1495,-2.1493,-2.1411,-2.1483,-2.1482,-2.1482,-2.1481,-2.1481,-2.1443,-2.1457,-2.146,-2.1473,-2.1476,-2.1482,-2.1495,-2.1493,-2.1504,-2.1515,-2.1508,-2.1525,-2.1528,-2.1539,-2.1542,-2.1555,-2.1543,-2.1552,-2.1554,-2.1555,-2.1558,-2.1495,-2.1557,-2.1556,-2.1556,-2.1556,-2.1556,0,-2.1504,-2.1505,-2.1517,-2.1526,-2.1536,-2.1524,-2.153,-2.1539,-2.1554,-2.1558,-2.1568,-2.1584,-2.1597,-2.1594,-2.1605,-2.1616,-2.161,-2.1619,-2.1617,-2.1617,-2.1568,-2.1561,-2.1624,-2.1624,-2.1624,-2.1624,-2.1624,-2.1624,-2.1536,-2.156,-2.1556,-2.1581,-2.1582,-2.1598,-2.1602,-2.1608,-2.1611,-2.163,-2.1641,-2.1639,-2.1641,-2.1652,-2.1663,-2.1662,-2.1666,-2.1678,-2.1674,-2.1628,-2.1621,-2.1614,-2.1608,-2.1679,-2.1679,-2.1722,-2.1723,-2.1723]},{"header":{"parameterUnit":"m.s-1","parameterCategory":1,"la1":30.2991,"la2":30.254,"lo1":-89.0895,"lo2":-89.0444,"dy":0.0017,"dx":0.0017,"nx":28,"ny":28,"refTime":"2024-12-17T03:00:00:Z","depth":0,"parameterNumber":3,"parameterNumberName":"V-component_of_WINDS"},"data":[0,0,0,0,0,0,0,0,0,0,0,0,0,0,0,0,0,0,0,0,0,0,0,0,0,0,0,0,0,0,0,0,0,0,0,0,0,0,0,0,0,0,0,0,0,0,0,0,0,0,0,0,0,0,0,0,0,0,-0.1755,-0.1755,0,-0.1766,-0.1766,-0.1767,-0.1735,-0.1734,-0.1733,-0.1732,-0.1747,-0.1748,-0.175,0,0,0,0,0,0,0,0,0,0,0,0,0,-0.1706,-0.1707,-0.1755,-0.1755,-0.1755,-0.1766,-0.1766,-0.1767,-0.1735,-0.1734,-0.1733,-0.1732,-0.1747,-0.1748,-0.175,0,0,0,0,0,0,0,0,0,0,0,0,0,-0.1724,-0.1708,-0.1755,-0.1741,-0.1739,-0.1766,-0.1766,-0.1767,-0.1736,-0.1734,-0.1733,-0.1731,-0.1746,-0.1748,-0.175,-0.1792,0,0,-0.1756,-0.1757,0,0,0,0,0,0,0,0,-0.1723,-0.1725,-0.1742,-0.1742,-0.174,-0.1748,-0.1755,-0.1775,-0.1736,-0.1737,-0.1732,-0.1731,-0.1749,-0.175,-0.1756,-0.1792,-0.1793,-0.1756,-0.1757,-0.1758,-0.1759,0,0,0,0,0,0,0,-0.1721,-0.1725,-0.1759,-0.1743,-0.1741,-0.1734,-0.1735,-0.1758,-0.1751,-0.1737,-0.1735,-0.1736,-0.1748,-0.1754,-0.1756,-0.1793,-0.1756,-0.1758,-0.1759,-0.176,-0.1863,-0.1864,0,0,0,0,0,0,-0.1722,-0.1724,-0.1759,-0.176,-0.1728,-0.1736,-0.1737,-0.1747,-0.1751,-0.175,-0.1738,-0.1735,-0.1751,-0.1754,-0.1756,-0.1804,-0.1758,-0.176,-0.1761,-0.1861,-0.1863,-0.1865,0,0,0,0,0,0,-0.1721,-0.1725,-0.1758,-0.1741,-0.1745,-0.1738,-0.175,-0.1748,-0.1754,-0.1751,-0.175,-0.1745,-0.175,-0.1754,-0.1783,-0.1805,-0.1761,-0.1763,-0.1859,-0.1862,-0.1864,-0.1902,0,0,0,0,0,0,-0.172,-0.1725,-0.1741,-0.1742,-0.1746,-0.1784,-0.1751,-0.1749,-0.1757,-0.1754,-0.1758,-0.1757,-0.1749,-0.178,-0.1784,-0.1806,-0.1764,-0.1857,-0.186,-0.1863,-0.1898,-0.1905,-0.1911,0,0,0,0,0,-0.1718,-0.1752,-0.1742,-0.1746,-0.1765,-0.1786,-0.1788,-0.1777,-0.1759,-0.1775,-0.1773,-0.1757,-0.1801,-0.1783,-0.1788,-0.1811,-0.1856,-0.186,-0.1863,-0.1896,-0.1904,-0.191,0,0,0,0,0,0,-0.1756,-0.1752,-0.1741,-0.1776,-0.1781,-0.178,-0.18,-0.1787,-0.1798,-0.1794,-0.1781,-0.1782,-0.1814,-0.1815,-0.1795,-0.1851,-0.1825,-0.183,-0.1849,-0.1856,-0.1862,-0.1861,-0.1766,0,0,0,0,0,-0.1768,-0.1784,-0.178,-0.1812,-0.1815,-0.1807,-0.1815,-0.1806,-0.1812,-0.1814,-0.1814,-0.1821,-0.1835,-0.1846,-0.186,-0.1898,-0.1898,-0.1916,-0.1922,-0.1927,-0.1932,-0.1951,-0.1958,-0.1876,-0.1876,-0.1876,0,0,-0.1794,-0.1793,-0.1805,-0.1819,-0.1822,-0.1839,-0.1809,-0.1829,-0.1842,-0.1818,-0.1844,-0.1844,-0.1851,-0.1884,-0.1899,-0.1886,-0.1954,-0.1932,-0.1936,-0.1937,-0.1955,-0.1963,-0.197,-0.1879,-0.1878,-0.1878,0,0,-0.1849,-0.1851,-0.1877,-0.188,-0.1884,-0.1878,-0.1884,-0.1885,-0.1884,-0.191,-0.1891,-0.1906,-0.1933,-0.1938,-0.1943,-0.1998,-0.1984,-0.2003,-0.2035,-0.2054,-0.206,-0.2066,-0.2085,-0.2092,-0.2007,-0.2007,-0.2007,0,-0.1881,-0.1906,-0.1892,-0.1912,-0.1919,-0.1896,-0.1921,-0.1925,-0.1934,-0.1939,-0.1925,-0.1956,-0.1959,-0.1992,-0.2005,-0.2011,-0.2017,-0.2003,-0.206,-0.2066,-0.2071,-0.2089,-0.2096,-0.201,-0.2009,-0.2009,-0.2009,0,-0.1944,-0.1962,-0.1982,-0.1989,-0.1998,-0.2021,-0.2011,-0.2021,-0.2011,-0.2006,-0.2033,-0.2035,-0.2048,-0.2055,-0.2046,-0.2087,-0.2079,-0.2062,-0.2037,-0.2081,-0.2098,-0.2105,-0.2013,-0.2012,-0.2011,-0.2011,0,0,-0.2026,-0.2023,-0.2031,-0.2033,-0.2035,-0.2049,-0.207,-0.2081,-0.209,-0.2097,-0.2114,-0.2136,-0.212,-0.2127,-0.2118,-0.2134,-0.2176,-0.2116,-0.2116,-0.2127,-0.2221,-0.2233,-0.2241,-0.2166,-0.2168,-0.2169,-0.222,0,-0.2081,-0.2116,-0.2103,-0.214,-0.2156,-0.2133,-0.2151,-0.2154,-0.215,-0.2163,-0.2159,-0.2174,-0.2153,-0.2156,-0.2171,-0.2168,-0.2195,-0.2164,-0.2183,-0.2184,-0.2182,-0.225,-0.2263,-0.2312,-0.2226,-0.2227,-0.2228,0,-0.2149,-0.2157,-0.2195,-0.2192,-0.2198,-0.2215,-0.2223,-0.2235,-0.2238,-0.2234,-0.224,-0.2227,-0.2247,-0.2221,-0.2249,-0.2229,-0.2235,-0.2235,-0.2236,-0.2238,-0.2209,-0.2253,-0.2327,-0.2334,-0.2238,-0.2238,-0.2237,0,-0.2204,-0.2224,-0.2248,-0.2251,-0.2249,-0.2261,-0.2261,-0.2262,-0.2269,-0.2276,-0.228,-0.2291,-0.2297,-0.2305,-0.2294,-0.2276,-0.2324,-0.2297,-0.2321,-0.2321,-0.2333,-0.2332,-0.2409,-0.2337,-0.2337,-0.2337,-0.2337,0,-0.2267,-0.2291,-0.2273,-0.2288,-0.2314,-0.2298,-0.2325,-0.2322,-0.2323,-0.2337,-0.2318,-0.2332,-0.2317,-0.233,-0.2322,-0.2346,-0.2349,-0.2347,-0.2344,-0.2348,-0.2349,-0.2353,-0.2349,-0.2339,-0.2338,-0.2338,-0.2338,0,-0.2333,-0.2322,-0.2347,-0.2342,-0.2341,-0.2361,-0.2356,-0.237,-0.2364,-0.2382,-0.2386,-0.2376,-0.239,-0.238,-0.2394,-0.2388,-0.242,-0.2413,-0.2419,-0.2417,-0.2441,-0.2439,-0.2523,-0.2533,-0.2455,-0.2456,-0.2457,0,-0.2374,-0.2392,-0.2387,-0.2395,-0.2395,-0.2408,-0.2414,-0.2399,-0.2407,-0.2409,-0.2423,-0.2435,-0.2443,-0.2466,-0.2461,-0.2471,-0.2464,-0.2493,-0.2466,-0.2469,-0.2464,-0.2463,-0.2465,-0.2498,-0.2499,-0.25,-0.2501,0,-0.2447,-0.244,-0.2449,-0.2456,-0.2464,-0.2469,-0.2473,-0.248,-0.2465,-0.2474,-0.2487,-0.2493,-0.2506,-0.2518,-0.2526,-0.2526,-0.2511,-0.2509,-0.2515,-0.252,-0.2522,-0.2521,-0.2434,-0.2507,-0.2507,-0.2506,-0.2506,-0.2506,-0.2502,-0.2516,-0.2514,-0.2525,-0.2525,-0.2529,-0.2541,-0.2535,-0.2545,-0.2554,-0.2544,-0.2559,-0.256,-0.2569,-0.257,-0.2582,-0.2571,-0.258,-0.2582,-0.2584,-0.2588,-0.252,-0.2584,-0.2584,-0.2583,-0.2583,-0.2583,0,-0.2574,-0.2571,-0.2581,-0.2585,-0.2593,-0.2576,-0.2579,-0.2587,-0.2601,-0.2602,-0.261,-0.2624,-0.2634,-0.2629,-0.2638,-0.2649,-0.2642,-0.2652,-0.2651,-0.2651,-0.2598,-0.2591,-0.2657,-0.2657,-0.2657,-0.2657,-0.2657,-0.2657,-0.2612,-0.2634,-0.2627,-0.2649,-0.2646,-0.266,-0.2662,-0.2665,-0.2666,-0.2682,-0.269,-0.2686,-0.2684,-0.2693,-0.2701,-0.27,-0.2704,-0.2716,-0.2712,-0.2662,-0.2655,-0.2648,-0.2642,-0.2717,-0.2717,-0.2764,-0.2764,-0.2765]}]]